Time,TemperatureF,DewpointF,PressureIn,WindDirection,WindDirectionDegrees,WindSpeedMPH,WindSpeedGustMPH,Humidity,HourlyPrecipIn,Conditions,Clouds,dailyrainin,SoftwareType,DateUTC
2013-07-31 00:02:00,-999.0,-99.9,-100.00,NNW,341,2.0,3.0,-999,-99.99,,,-99.99,,2013-07-31 08:02:00,
2013-07-31 00:12:00,-999.0,-99.9,-100.00,North,3,4.0,4.0,-999,-99.99,,,-99.99,,2013-07-31 08:12:00,
2013-07-31 00:22:00,-999.0,-99.9,-100.00,North,356,5.0,5.0,-999,-99.99,,,-99.99,,2013-07-31 08:22:00,
2013-07-31 00:33:00,-999.0,-99.9,-100.00,North,9,5.0,6.0,-999,-99.99,,,-99.99,,2013-07-31 08:33:00,
2013-07-31 00:42:00,-999.0,-99.9,-100.00,North,360,2.0,4.0,-999,-99.99,,,-99.99,,2013-07-31 08:42:00,
2013-07-31 00:53:00,-999.0,-99.9,-100.00,NNW,330,3.0,3.0,-999,-99.99,,,-99.99,,2013-07-31 08:53:00,
2013-07-31 01:02:00,-999.0,-99.9,-100.00,NNW,348,4.0,4.0,-999,-99.99,,,-99.99,,2013-07-31 09:02:00,
2013-07-31 01:12:00,-999.0,-99.9,-100.00,NNW,344,4.0,4.0,-999,-99.99,,,-99.99,,2013-07-31 09:12:00,
2013-07-31 01:22:00,-999.0,-99.9,-100.00,North,353,3.0,4.0,-999,-99.99,,,-99.99,,2013-07-31 09:22:00,
2013-07-31 01:33:00,-999.0,-99.9,-100.00,North,9,4.0,5.0,-999,-99.99,,,-99.99,,2013-07-31 09:33:00,
2013-07-31 01:44:00,-999.0,-99.9,-100.00,North,9,5.0,5.0,-999,-99.99,,,-99.99,,2013-07-31 09:44:00,
2013-07-31 01:52:00,-999.0,-99.9,-100.00,NNE,18,6.0,6.0,-999,-99.99,,,-99.99,,2013-07-31 09:52:00,
2013-07-31 02:02:00,-999.0,-99.9,-100.00,NNE,18,5.0,6.0,-999,-99.99,,,-99.99,,2013-07-31 10:02:00,
2013-07-31 02:12:00,-999.0,-99.9,-100.00,North,6,5.0,5.0,-999,-99.99,,,-99.99,,2013-07-31 10:12:00,
2013-07-31 02:23:00,-999.0,-99.9,-100.00,NNE,17,4.0,5.0,-999,-99.99,,,-99.99,,2013-07-31 10:23:00,
2013-07-31 02:32:00,-999.0,-99.9,-100.00,NNE,14,4.0,4.0,-999,-99.99,,,-99.99,,2013-07-31 10:32:00,
2013-07-31 02:44:00,-999.0,-99.9,-100.00,NNE,20,5.0,5.0,-999,-99.99,,,-99.99,,2013-07-31 10:44:00,
2013-07-31 02:52:00,-999.0,-99.9,-100.00,North,3,3.0,5.0,-999,-99.99,,,-99.99,,2013-07-31 10:52:00,
2013-07-31 03:03:00,-999.0,-99.9,-100.00,NNE,13,6.0,6.0,-999,-99.99,,,-99.99,,2013-07-31 11:03:00,
2013-07-31 03:12:00,-999.0,-99.9,-100.00,NNE,14,6.0,6.0,-999,-99.99,,,-99.99,,2013-07-31 11:12:00,
2013-07-31 03:22:00,-999.0,-99.9,-100.00,NNE,16,5.0,6.0,-999,-99.99,,,-99.99,,2013-07-31 11:22:00,
2013-07-31 03:33:00,-999.0,-99.9,-100.00,NNE,24,6.0,7.0,-999,-99.99,,,-99.99,,2013-07-31 11:33:00,
2013-07-31 03:43:00,-999.0,-99.9,-100.00,NNE,24,5.0,5.0,-999,-99.99,,,-99.99,,2013-07-31 11:43:00,
2013-07-31 03:53:00,-999.0,-99.9,-100.00,NNE,13,4.0,4.0,-999,-99.99,,,-99.99,,2013-07-31 11:53:00,
2013-07-31 04:03:00,-999.0,-99.9,-100.00,NNE,31,3.0,-1.0,-999,-99.99,,,-99.99,,2013-07-31 12:03:00,
2013-07-31 04:13:00,-999.0,-99.9,-100.00,NE,39,3.0,4.0,-999,-99.99,,,-99.99,,2013-07-31 12:13:00,
2013-07-31 04:22:00,-999.0,-99.9,-100.00,NE,50,3.0,3.0,-999,-99.99,,,-99.99,,2013-07-31 12:22:00,
2013-07-31 04:33:00,-999.0,-99.9,-100.00,ENE,60,2.0,2.0,-999,-99.99,,,-99.99,,2013-07-31 12:33:00,
2013-07-31 04:43:00,-999.0,-99.9,-100.00,NNE,21,3.0,3.0,-999,-99.99,,,-99.99,,2013-07-31 12:43:00,
2013-07-31 04:53:00,-999.0,-99.9,-100.00,NNE,25,3.0,3.0,-999,-99.99,,,-99.99,,2013-07-31 12:53:00,
2013-07-31 05:02:00,-999.0,-99.9,-100.00,NE,37,2.0,2.0,-999,-99.99,,,-99.99,,2013-07-31 13:02:00,
2013-07-31 05:12:00,-999.0,-99.9,-100.00,North,10,1.0,2.0,-999,-99.99,,,-99.99,,2013-07-31 13:12:00,
2013-07-31 05:22:00,-999.0,-99.9,-100.00,NNE,21,2.0,3.0,-999,-99.99,,,-99.99,,2013-07-31 13:22:00,
2013-07-31 05:33:00,-999.0,-99.9,-100.00,North,4,3.0,4.0,-999,-99.99,,,-99.99,,2013-07-31 13:33:00,
2013-07-31 05:43:00,-999.0,-99.9,-100.00,NNE,26,4.0,4.0,-999,-99.99,,,-99.99,,2013-07-31 13:43:00,
2013-07-31 05:53:00,-999.0,-99.9,-100.00,NNE,21,3.0,3.0,-999,-99.99,,,-99.99,,2013-07-31 13:53:00,
2013-07-31 06:02:00,-999.0,-99.9,-100.00,NNW,342,1.0,2.0,-999,-99.99,,,-99.99,,2013-07-31 14:02:00,
2013-07-31 06:13:00,-999.0,-99.9,-100.00,NNE,31,2.0,2.0,-999,-99.99,,,-99.99,,2013-07-31 14:13:00,
2013-07-31 06:23:00,-999.0,-99.9,-100.00,NNE,14,2.0,2.0,-999,-99.99,,,-99.99,,2013-07-31 14:23:00,
2013-07-31 06:34:00,-999.0,-99.9,-100.00,NNE,21,2.0,3.0,-999,-99.99,,,-99.99,,2013-07-31 14:34:00,
2013-07-31 06:43:00,-999.0,-99.9,-100.00,NNE,25,4.0,5.0,-999,-99.99,,,-99.99,,2013-07-31 14:43:00,
2013-07-31 06:53:00,-999.0,-99.9,-100.00,NNE,25,3.0,4.0,-999,-99.99,,,-99.99,,2013-07-31 14:53:00,
2013-07-31 07:02:00,-999.0,-99.9,-100.00,NNE,24,4.0,4.0,-999,-99.99,,,-99.99,,2013-07-31 15:02:00,
2013-07-31 07:12:00,-999.0,-99.9,-100.00,NNE,20,3.0,4.0,-999,-99.99,,,-99.99,,2013-07-31 15:12:00,
2013-07-31 07:23:00,-999.0,-99.9,-100.00,NNE,15,3.0,3.0,-999,-99.99,,,-99.99,,2013-07-31 15:23:00,
2013-07-31 07:33:00,-999.0,-99.9,-100.00,NNE,21,2.0,-1.0,-999,-99.99,,,-99.99,,2013-07-31 15:33:00,
2013-07-31 07:44:00,-999.0,-99.9,-100.00,NNE,24,3.0,3.0,-999,-99.99,,,-99.99,,2013-07-31 15:44:00,
2013-07-31 07:53:00,-999.0,-99.9,-100.00,NNE,19,1.0,2.0,-999,-99.99,,,-99.99,,2013-07-31 15:53:00,
2013-07-31 08:03:00,-999.0,-99.9,-100.00,NNW,331,2.0,2.0,-999,-99.99,,,-99.99,,2013-07-31 16:03:00,
2013-07-31 08:12:00,-999.0,-99.9,-100.00,SSW,209,1.0,1.0,-999,-99.99,,,-99.99,,2013-07-31 16:12:00,
2013-07-31 08:22:00,-999.0,-99.9,-100.00,South,190,1.0,1.0,-999,-99.99,,,-99.99,,2013-07-31 16:22:00,
2013-07-31 08:33:00,-999.0,-99.9,-100.00,WSW,238,1.0,3.0,-999,-99.99,,,-99.99,,2013-07-31 16:33:00,
2013-07-31 08:44:00,-999.0,-99.9,-100.00,SSW,212,5.0,5.0,-999,-99.99,,,-99.99,,2013-07-31 16:44:00,
2013-07-31 08:53:00,-999.0,-99.9,-100.00,SW,217,7.0,8.0,-999,-99.99,,,-99.99,,2013-07-31 16:53:00,
2013-07-31 09:03:00,-999.0,-99.9,-100.00,WSW,243,6.0,6.0,-999,-99.99,,,-99.99,,2013-07-31 17:03:00,
2013-07-31 09:13:00,-999.0,-99.9,-100.00,SW,220,5.0,6.0,-999,-99.99,,,-99.99,,2013-07-31 17:13:00,
2013-07-31 09:22:00,-999.0,-99.9,-100.00,SW,220,7.0,7.0,-999,-99.99,,,-99.99,,2013-07-31 17:22:00,
2013-07-31 09:33:00,-999.0,-99.9,-100.00,SW,221,8.0,9.0,-999,-99.99,,,-99.99,,2013-07-31 17:33:00,
2013-07-31 09:43:00,-999.0,-99.9,-100.00,SW,224,8.0,8.0,-999,-99.99,,,-99.99,,2013-07-31 17:43:00,
2013-07-31 09:53:00,-999.0,-99.9,-100.00,SW,216,7.0,7.0,-999,-99.99,,,-99.99,,2013-07-31 17:53:00,
2013-07-31 10:02:00,-999.0,-99.9,-100.00,SW,222,7.0,7.0,-999,-99.99,,,-99.99,,2013-07-31 18:02:00,
2013-07-31 10:13:00,-999.0,-99.9,-100.00,SW,220,6.0,7.0,-999,-99.99,,,-99.99,,2013-07-31 18:13:00,
2013-07-31 10:23:00,-999.0,-99.9,-100.00,West,265,8.0,-1.0,-999,-99.99,,,-99.99,,2013-07-31 18:23:00,
2013-07-31 10:33:00,-999.0,-99.9,-100.00,WSW,257,8.0,9.0,-999,-99.99,,,-99.99,,2013-07-31 18:33:00,
2013-07-31 10:43:00,-999.0,-99.9,-100.00,West,265,7.0,9.0,-999,-99.99,,,-99.99,,2013-07-31 18:43:00,
2013-07-31 10:52:00,-999.0,-99.9,-100.00,West,270,7.0,11.0,-999,-99.99,,,-99.99,,2013-07-31 18:52:00,
2013-07-31 11:03:00,-999.0,-99.9,-100.00,West,279,10.0,-1.0,-999,-99.99,,,-99.99,,2013-07-31 19:03:00,
2013-07-31 11:12:00,-999.0,-99.9,-100.00,West,275,10.0,11.0,-999,-99.99,,,-99.99,,2013-07-31 19:12:00,
2013-07-31 11:23:00,-999.0,-99.9,-100.00,West,269,7.0,9.0,-999,-99.99,,,-99.99,,2013-07-31 19:23:00,
2013-07-31 11:33:00,-999.0,-99.9,-100.00,West,271,8.0,8.0,-999,-99.99,,,-99.99,,2013-07-31 19:33:00,
2013-07-31 11:43:00,-999.0,-99.9,-100.00,WSW,256,8.0,9.0,-999,-99.99,,,-99.99,,2013-07-31 19:43:00,
2013-07-31 11:53:00,-999.0,-99.9,-100.00,West,279,8.0,9.0,-999,-99.99,,,-99.99,,2013-07-31 19:53:00,
2013-07-31 12:03:00,-999.0,-99.9,-100.00,West,279,8.0,9.0,-999,-99.99,,,-99.99,,2013-07-31 20:03:00,
2013-07-31 12:13:00,-999.0,-99.9,-100.00,West,280,10.0,10.0,-999,-99.99,,,-99.99,,2013-07-31 20:13:00,
2013-07-31 12:23:00,-999.0,-99.9,-100.00,WNW,282,8.0,9.0,-999,-99.99,,,-99.99,,2013-07-31 20:23:00,
2013-07-31 12:33:00,-999.0,-99.9,-100.00,West,281,9.0,9.0,-999,-99.99,,,-99.99,,2013-07-31 20:33:00,
2013-07-31 12:43:00,-999.0,-99.9,-100.00,West,273,9.0,9.0,-999,-99.99,,,-99.99,,2013-07-31 20:43:00,
2013-07-31 12:53:00,-999.0,-99.9,-100.00,West,264,8.0,-1.0,-999,-99.99,,,-99.99,,2013-07-31 20:53:00,
2013-07-31 13:03:00,-999.0,-99.9,-100.00,West,266,8.0,9.0,-999,-99.99,,,-99.99,,2013-07-31 21:03:00,
2013-07-31 13:13:00,-999.0,-99.9,-100.00,West,275,8.0,8.0,-999,-99.99,,,-99.99,,2013-07-31 21:13:00,
2013-07-31 13:22:00,-999.0,-99.9,-100.00,West,269,7.0,9.0,-999,-99.99,,,-99.99,,2013-07-31 21:22:00,
2013-07-31 13:33:00,-999.0,-99.9,-100.00,West,276,9.0,9.0,-999,-99.99,,,-99.99,,2013-07-31 21:33:00,
2013-07-31 13:43:00,-999.0,-99.9,-100.00,West,279,9.0,9.0,-999,-99.99,,,-99.99,,2013-07-31 21:43:00,
2013-07-31 13:53:00,-999.0,-99.9,-100.00,West,267,7.0,8.0,-999,-99.99,,,-99.99,,2013-07-31 21:53:00,
2013-07-31 14:02:00,-999.0,-99.9,-100.00,West,277,8.0,-1.0,-999,-99.99,,,-99.99,,2013-07-31 22:02:00,
2013-07-31 14:13:00,-999.0,-99.9,-100.00,West,279,10.0,11.0,-999,-99.99,,,-99.99,,2013-07-31 22:13:00,
2013-07-31 14:23:00,-999.0,-99.9,-100.00,West,275,9.0,9.0,-999,-99.99,,,-99.99,,2013-07-31 22:23:00,
2013-07-31 14:33:00,-999.0,-99.9,-100.00,West,276,9.0,9.0,-999,-99.99,,,-99.99,,2013-07-31 22:33:00,
2013-07-31 14:43:00,-999.0,-99.9,-100.00,West,270,8.0,9.0,-999,-99.99,,,-99.99,,2013-07-31 22:43:00,
2013-07-31 14:53:00,-999.0,-99.9,-100.00,West,266,8.0,9.0,-999,-99.99,,,-99.99,,2013-07-31 22:53:00,
2013-07-31 15:02:00,-999.0,-99.9,-100.00,West,273,9.0,9.0,-999,-99.99,,,-99.99,,2013-07-31 23:02:00,
2013-07-31 15:12:00,-999.0,-99.9,-100.00,West,273,8.0,9.0,-999,-99.99,,,-99.99,,2013-07-31 23:12:00,
2013-07-31 15:22:00,-999.0,-99.9,-100.00,West,266,9.0,9.0,-999,-99.99,,,-99.99,,2013-07-31 23:22:00,
2013-07-31 15:32:00,-999.0,-99.9,-100.00,WNW,282,8.0,8.0,-999,-99.99,,,-99.99,,2013-07-31 23:32:00,
2013-07-31 15:43:00,-999.0,-99.9,-100.00,West,262,7.0,7.0,-999,-99.99,,,-99.99,,2013-07-31 23:43:00,
2013-07-31 15:53:00,-999.0,-99.9,-100.00,WSW,258,6.0,7.0,-999,-99.99,,,-99.99,,2013-07-31 23:53:00,
2013-07-31 16:03:00,-999.0,-99.9,-100.00,West,274,7.0,7.0,-999,-99.99,,,-99.99,,2013-08-01 00:03:00,
2013-07-31 16:12:00,-999.0,-99.9,-100.00,West,274,7.0,7.0,-999,-99.99,,,-99.99,,2013-08-01 00:12:00,
2013-07-31 16:22:00,-999.0,-99.9,-100.00,West,275,6.0,6.0,-999,-99.99,,,-99.99,,2013-08-01 00:22:00,
2013-07-31 16:32:00,-999.0,-99.9,-100.00,West,281,6.0,6.0,-999,-99.99,,,-99.99,,2013-08-01 00:32:00,
2013-07-31 16:43:00,-999.0,-99.9,-100.00,WNW,293,5.0,5.0,-999,-99.99,,,-99.99,,2013-08-01 00:43:00,
2013-07-31 16:53:00,-999.0,-99.9,-100.00,WSW,258,6.0,9.0,-999,-99.99,,,-99.99,,2013-08-01 00:53:00,
2013-07-31 17:03:00,-999.0,-99.9,-100.00,WSW,258,6.0,7.0,-999,-99.99,,,-99.99,,2013-08-01 01:03:00,
2013-07-31 17:13:00,-999.0,-99.9,-100.00,West,273,7.0,8.0,-999,-99.99,,,-99.99,,2013-08-01 01:13:00,
2013-07-31 17:22:00,-999.0,-99.9,-100.00,West,276,6.0,6.0,-999,-99.99,,,-99.99,,2013-08-01 01:22:00,
2013-07-31 17:33:00,-999.0,-99.9,-100.00,WNW,282,5.0,7.0,-999,-99.99,,,-99.99,,2013-08-01 01:33:00,
2013-07-31 17:43:00,-999.0,-99.9,-100.00,WNW,286,7.0,7.0,-999,-99.99,,,-99.99,,2013-08-01 01:43:00,
2013-07-31 17:53:00,-999.0,-99.9,-100.00,WNW,301,3.0,4.0,-999,-99.99,,,-99.99,,2013-08-01 01:53:00,
2013-07-31 18:03:00,-999.0,-99.9,-100.00,NW,306,6.0,6.0,-999,-99.99,,,-99.99,,2013-08-01 02:03:00,
2013-07-31 18:13:00,-999.0,-99.9,-100.00,WNW,286,7.0,7.0,-999,-99.99,,,-99.99,,2013-08-01 02:13:00,
2013-07-31 18:22:00,-999.0,-99.9,-100.00,NW,325,3.0,5.0,-999,-99.99,,,-99.99,,2013-08-01 02:22:00,
2013-07-31 18:32:00,-999.0,-99.9,-100.00,NW,317,5.0,6.0,-999,-99.99,,,-99.99,,2013-08-01 02:32:00,
2013-07-31 18:43:00,-999.0,-99.9,-100.00,NW,308,5.0,5.0,-999,-99.99,,,-99.99,,2013-08-01 02:43:00,
2013-07-31 18:53:00,-999.0,-99.9,-100.00,NW,316,3.0,4.0,-999,-99.99,,,-99.99,,2013-08-01 02:53:00,
2013-07-31 19:02:00,-999.0,-99.9,-100.00,NW,325,4.0,4.0,-999,-99.99,,,-99.99,,2013-08-01 03:02:00,
2013-07-31 19:12:00,-999.0,-99.9,-100.00,NW,306,3.0,-1.0,-999,-99.99,,,-99.99,,2013-08-01 03:12:00,
2013-07-31 19:22:00,-999.0,-99.9,-100.00,NW,323,3.0,4.0,-999,-99.99,,,-99.99,,2013-08-01 03:22:00,
2013-07-31 19:32:00,-999.0,-99.9,-100.00,NNW,328,3.0,3.0,-999,-99.99,,,-99.99,,2013-08-01 03:32:00,
2013-07-31 19:43:00,-999.0,-99.9,-100.00,NW,323,3.0,3.0,-999,-99.99,,,-99.99,,2013-08-01 03:43:00,
2013-07-31 19:53:00,-999.0,-99.9,-100.00,North,353,3.0,4.0,-999,-99.99,,,-99.99,,2013-08-01 03:53:00,
2013-07-31 20:03:00,-999.0,-99.9,-100.00,North,4,4.0,4.0,-999,-99.99,,,-99.99,,2013-08-01 04:03:00,
2013-07-31 20:13:00,-999.0,-99.9,-100.00,North,356,4.0,5.0,-999,-99.99,,,-99.99,,2013-08-01 04:13:00,
2013-07-31 20:22:00,-999.0,-99.9,-100.00,NNE,17,5.0,6.0,-999,-99.99,,,-99.99,,2013-08-01 04:22:00,
2013-07-31 20:33:00,-999.0,-99.9,-100.00,North,2,5.0,5.0,-999,-99.99,,,-99.99,,2013-08-01 04:33:00,
2013-07-31 20:43:00,-999.0,-99.9,-100.00,North,4,5.0,5.0,-999,-99.99,,,-99.99,,2013-08-01 04:43:00,
2013-07-31 20:53:00,-999.0,-99.9,-100.00,NNE,21,5.0,6.0,-999,-99.99,,,-99.99,,2013-08-01 04:53:00,
2013-07-31 21:03:00,-999.0,-99.9,-100.00,NNE,15,6.0,7.0,-999,-99.99,,,-99.99,,2013-08-01 05:03:00,
2013-07-31 21:13:00,-999.0,-99.9,-100.00,NNE,18,7.0,7.0,-999,-99.99,,,-99.99,,2013-08-01 05:13:00,
2013-07-31 21:23:00,-999.0,-99.9,-100.00,NNE,19,5.0,6.0,-999,-99.99,,,-99.99,,2013-08-01 05:23:00,
2013-07-31 21:33:00,-999.0,-99.9,-100.00,NNE,19,7.0,8.0,-999,-99.99,,,-99.99,,2013-08-01 05:33:00,
2013-07-31 21:43:00,-999.0,-99.9,-100.00,NNE,21,6.0,7.0,-999,-99.99,,,-99.99,,2013-08-01 05:43:00,
2013-07-31 21:53:00,-999.0,-99.9,-100.00,NNE,13,3.0,4.0,-999,-99.99,,,-99.99,,2013-08-01 05:53:00,
2013-07-31 22:02:00,-999.0,-99.9,-100.00,North,4,4.0,4.0,-999,-99.99,,,-99.99,,2013-08-01 06:02:00,
2013-07-31 22:13:00,-999.0,-99.9,-100.00,NNE,23,4.0,5.0,-999,-99.99,,,-99.99,,2013-08-01 06:13:00,
2013-07-31 22:23:00,-999.0,-99.9,-100.00,NNE,13,5.0,5.0,-999,-99.99,,,-99.99,,2013-08-01 06:23:00,
2013-07-31 22:33:00,-999.0,-99.9,-100.00,NNE,18,3.0,5.0,-999,-99.99,,,-99.99,,2013-08-01 06:33:00,
2013-07-31 22:43:00,-999.0,-99.9,-100.00,North,11,5.0,5.0,-999,-99.99,,,-99.99,,2013-08-01 06:43:00,
2013-07-31 22:53:00,-999.0,-99.9,-100.00,NNE,14,6.0,6.0,-999,-99.99,,,-99.99,,2013-08-01 06:53:00,
2013-07-31 23:03:00,-999.0,-99.9,-100.00,NNE,12,7.0,7.0,-999,-99.99,,,-99.99,,2013-08-01 07:03:00,
2013-07-31 23:12:00,-999.0,-99.9,-100.00,North,7,6.0,6.0,-999,-99.99,,,-99.99,,2013-08-01 07:12:00,
2013-07-31 23:23:00,-999.0,-99.9,-100.00,NNE,18,7.0,7.0,-999,-99.99,,,-99.99,,2013-08-01 07:23:00,
2013-07-31 23:33:00,-999.0,-99.9,-100.00,NNE,15,8.0,8.0,-999,-99.99,,,-99.99,,2013-08-01 07:33:00,
2013-07-31 23:43:00,-999.0,-99.9,-100.00,NNE,16,6.0,7.0,-999,-99.99,,,-99.99,,2013-08-01 07:43:00,
2013-07-31 23:57:00,-999.0,-99.9,-100.00,NNE,22,6.0,8.0,-999,-99.99,,,-99.99,,2013-08-01 07:57:00,